Location: Unspecified
(0.0000°N, 0.0000°E)
Time: 17:12:21
(UTC+00:00)

Transit 2A Rocket - All Passes

Search period start: 26 April 2015 00:00
Search period end: 06 May 2015 00:00
Orbit: 585 x 921 km, 66.7° (Epoch: 25 April)

Date Brightness Start Highest point End Pass type
(mag) Time Alt. Az. Time Alt. Az. Time Alt. Az.
26 Apr - 05:47:00 10° NE 05:48:44 12° ENE 05:50:46 10° E daylight
26 Apr - 07:27:04 10° NW 07:31:23 31° WSW 07:35:21 10° S daylight
26 Apr - 18:12:58 10° S 18:17:59 40° ESE 18:23:27 10° NE visible
26 Apr - 19:57:18 10° WSW 20:00:43 16° WNW 20:03:54 10° NNW visible
27 Apr - 06:44:30 10° NNW 06:49:24 74° WSW 06:53:52 10° SSE daylight
27 Apr - 17:32:11 10° SSE 17:35:56 20° ESE 17:40:09 10° ENE daylight
27 Apr - 19:13:35 10° SW 19:18:28 31° WNW 19:23:33 10° N visible
28 Apr - 06:02:39 10° N 06:07:21 47° ENE 06:11:43 10° SE daylight
28 Apr - 18:30:55 10° SSW 18:36:20 62° WNW 18:42:11 10° N visible
29 Apr - 05:21:35 10° NNE 05:25:11 21° ENE 05:28:45 10° ESE visible
29 Apr - 07:04:24 10° WNW 07:07:40 18° WSW 07:10:35 10° SSW daylight
29 Apr - 17:48:53 10° S 17:54:18 67° ESE 18:00:10 10° NNE daylight
30 Apr - 06:21:07 10° NW 06:25:38 39° WSW 06:29:48 10° S daylight
30 Apr - 17:07:28 10° S 17:12:16 33° ESE 17:17:31 10° NE daylight
30 Apr - 18:50:53 10° WSW 18:54:56 19° WNW 18:58:52 10° NNW visible
01 May - 05:38:47 10° NNW 05:43:39 87° ENE 05:48:07 10° SSE daylight
01 May - 16:27:01 10° SE 16:30:12 16° ESE 16:33:51 10° ENE daylight
01 May - 18:07:33 10° SW 18:12:42 38° WNW 18:18:07 10° N daylight
02 May - 04:57:07 10° N 05:01:34 37° ENE 05:05:45 10° SE visible
02 May - 17:25:05 10° SSW 17:30:36 76° WNW 17:36:33 10° NNE daylight
03 May - 04:16:24 10° NNE 04:19:22 17° ENE 04:22:26 10° ESE visible
03 May - 05:58:11 10° WNW 06:01:54 22° WSW 06:05:16 10° SSW daylight
03 May - 16:43:13 10° S 16:48:34 54° ESE 16:54:22 10° NNE daylight
03 May - 18:29:27 10° W 18:31:26 11° WNW 18:32:56 10° NW visible
04 May - 05:15:14 10° NNW 05:19:53 50° WSW 05:24:10 10° S visible
04 May - 16:02:00 10° SSE 16:06:32 27° ESE 16:11:29 10° NE daylight
04 May - 17:44:37 10° WSW 17:49:07 23° WNW 17:53:39 10° NNW daylight
05 May - 04:33:05 10° NNW 04:37:51 68° ENE 04:42:17 10° SSE visible
05 May - 15:22:04 10° SE 15:24:25 13° ESE 15:27:16 10° E daylight
05 May - 17:01:35 10° SW 17:06:56 46° WNW 17:12:36 10° N daylight
